Fort Myers Airport, FL

11:26 AM EST on November 20, 2017 (GMT -0500)
Southwest Florida International

Weather History for KRSW - April, 2014

Change the Weather History Date:

Friday, April 11, 2014

  Actual Average Record
Temperature  
Mean Temperature 70 °F -  
Max Temperature 84 °F 82 °F 93 °F (1943)
Min Temperature 57 °F 60 °F 45 °F (1960)
Cooling Degree Days 4    
Growing Degree Days 20 (Base 50)    
Moisture  
Dew Point 57 °F    
Average Humidity 63    
Maximum Humidity 83    
Minimum Humidity 37    
Precipitation  
Precipitation 0.00 in - - ()
Sea Level Pressure  
Sea Level Pressure 30.17 in    
Wind  
Wind Speed 7 mph (East)    
Max Wind Speed 15 mph    
Max Gust Speed 21 mph    
Visibility 10 miles    
Events Rain    
Averages and records for this station are not official NWS values.
T = Trace of Precipitation, MM = Missing Value Source: NWS Daily Summary

Daily Weather History Graph

Daily Weather History Graph

Search for Another Location

Airport or City:

Trip Planner

Search our weather history database for the weather conditions in past years. The results will help you decide how hot, cold, wet, or windy it might be!

Date:

Astronomy

Apr. 11, 2014 Rise Set
Actual Time 7:07 AM EDT 7:48 PM EDT
Civil Twilight 6:43 AM EDT 8:12 PM EDT
Nautical Twilight 6:16 AM EDT 8:40 PM EDT
Astronomical Twilight 5:48 AM EDT 9:08 PM EDT
Moon 4:45 PM EDT (4/11) 4:41 AM EDT (4/11)
Length of Visible Light 13h 28m
Length of Day
12h 41m
Waxing Gibbous, 87% of the Moon is Illuminated
Apr 11
Waxing Gibbous
Apr 15
Full
Apr 22
Last Quarter
Apr 29
New
May 6
First Quarter

Hourly Weather History & Observations

Time (EDT) Temp. Heat Index Dew Point Humidity Pressure Visibility Wind Dir Wind Speed Gust Speed Precip Events Conditions
12:53 AM 63.0 °F - 50.0 °F 63% 30.24 in 10.0 mi East 6.9 mph - N/A   Clear
1:53 AM 62.1 °F - 50.0 °F 65% 30.22 in 10.0 mi East 6.9 mph - N/A   Clear
2:53 AM 60.1 °F - 50.0 °F 69% 30.20 in 10.0 mi East 5.8 mph - N/A   Clear
3:53 AM 59.0 °F - 51.1 °F 75% 30.18 in 10.0 mi ENE 5.8 mph - N/A   Clear
4:53 AM 57.9 °F - 52.0 °F 81% 30.17 in 10.0 mi ENE 3.5 mph - N/A   Clear
5:53 AM 57.0 °F - 51.1 °F 81% 30.18 in 10.0 mi ENE 4.6 mph - N/A   Clear
6:53 AM 57.0 °F - 52.0 °F 83% 30.19 in 10.0 mi NE 4.6 mph - N/A   Clear
7:53 AM 59.0 °F - 53.1 °F 81% 30.21 in 10.0 mi ENE 4.6 mph - N/A   Clear
8:53 AM 66.0 °F - 55.9 °F 70% 30.22 in 10.0 mi ENE 6.9 mph - N/A   Clear
9:53 AM 73.0 °F - 57.9 °F 59% 30.23 in 10.0 mi ENE 9.2 mph - N/A   Clear
10:53 AM 75.9 °F - 59.0 °F 56% 30.22 in 10.0 mi East 11.5 mph - N/A   Clear
11:53 AM 79.0 °F - 57.0 °F 47% 30.21 in 10.0 mi ESE 11.5 mph 20.7 mph N/A   Clear
12:53 PM 81.0 °F 81.1 °F 57.9 °F 45% 30.19 in 10.0 mi SE 11.5 mph - N/A   Clear
1:53 PM 81.0 °F 81.0 °F 57.0 °F 44% 30.16 in 10.0 mi ESE 4.6 mph - N/A   Scattered Clouds
2:53 PM 82.0 °F 81.7 °F 57.0 °F 42% 30.14 in 10.0 mi SE 9.2 mph - N/A   Scattered Clouds
3:53 PM 82.9 °F 81.9 °F 54.0 °F 37% 30.11 in 10.0 mi Calm Calm - N/A   Clear
4:53 PM 82.9 °F 82.1 °F 55.9 °F 39% 30.09 in 10.0 mi Variable 3.5 mph - N/A   Partly Cloudy
5:53 PM 82.9 °F 82.1 °F 55.9 °F 39% 30.09 in 10.0 mi Variable 5.8 mph - N/A   Partly Cloudy
6:53 PM 79.0 °F - 61.0 °F 54% 30.10 in 10.0 mi ESE 6.9 mph - 0.00 in   Overcast
7:53 PM 75.0 °F - 63.0 °F 66% 30.11 in 10.0 mi ESE 15.0 mph - 0.00 in   Overcast
8:53 PM 72.0 °F - 64.9 °F 78% 30.14 in 10.0 mi ESE 11.5 mph - 0.00 in Rain Light Rain
9:53 PM 72.0 °F - 64.9 °F 78% 30.14 in 10.0 mi ESE 5.8 mph - 0.00 in   Overcast
10:53 PM 71.1 °F - 63.0 °F 75% 30.14 in 10.0 mi East 9.2 mph - N/A   Mostly Cloudy
11:53 PM 70.0 °F - 63.0 °F 78% 30.15 in 10.0 mi East 6.9 mph - N/A   Clear